Location: Gleizolles
(44.4833°N, 6.7667°E)
Time: 16:43:24
(UTC+00:00)

Transit 2A - Pass Details

Date: 26 June 2024
Orbit: 591 x 960 km, 66.7° (Epoch: 16 July)

Event Time Altitude Azimuth Distance (km) Brightness Sun altitude
Rises 23:59:01 0° 316° (NW) 3,582 10.0 -22.0°
Reaches altitude 10° 00:02:01 10° 303° (WNW) 2,667 9.1 -21.9°
Maximum altitude 00:06:46 23° 254° (WSW) 1,913 7.8 -21.8°
Enters shadow 00:07:35 22° 243° (WSW) 1,941 7.7 -21.8°
